|
Cosmos 1603 - Orbit
|
Grandview Campground;
20:47:32
| Home | Info | Passes |
|
View from above orbital plane
|
View from above satellite
|
Ground track
|
The orbit data is extracted from the following two-line orbital elements,
1 15333U 84106A 13141.84781166 .00000195 00000-0 12779-3 0 7267
2 15333 071.0282 326.4039 0021367 308.2262 147.7980 14.13877818478021
| Epoch (UTC): | 21 May 2013 20:20:50 |
| Eccentricity: | 0.0021367 |
| inclination: | 71.0282° |
| perigee height: | 830 km |
| apogee height: | 861 km |
| right ascension of ascending node: | 326.4039° |
| argument of perigee: | 308.2262° |
| revolutions per day: | 14.13877818 |
| mean anomaly at epoch: | 147.7980° |
| orbit number at epoch: | 47802 |
The dashed part of the orbit path shows where the satellite is in the earth's shadow,
|
|